TimeCDT,TemperatureF,Dew PointF,Humidity,Sea Level PressureIn,VisibilityMPH,Wind Direction,Wind SpeedMPH,Gust SpeedMPH,PrecipitationIn,Events,Conditions,WindDirDegrees,DateUTC
12:53 AM,30.9,24.1,76,30.38,10.0,Calm,Calm,-,N/A,,Clear,0,2012-10-27 05:53:00
1:53 AM,28.9,23.0,78,30.36,10.0,Calm,Calm,-,N/A,,Clear,0,2012-10-27 06:53:00
2:53 AM,25.0,21.0,85,30.35,10.0,South,3.5,-,N/A,,Clear,190,2012-10-27 07:53:00
3:53 AM,24.1,19.9,84,30.33,10.0,SW,5.8,-,N/A,,Clear,220,2012-10-27 08:53:00
4:53 AM,23.0,18.0,81,30.31,10.0,SSW,4.6,-,N/A,,Clear,210,2012-10-27 09:53:00
5:53 AM,25.0,19.9,81,30.32,10.0,SSW,6.9,-,N/A,,Clear,200,2012-10-27 10:53:00
6:53 AM,24.1,18.0,77,30.34,10.0,South,3.5,-,N/A,,Clear,190,2012-10-27 11:53:00
7:53 AM,23.0,18.0,81,30.32,10.0,South,4.6,-,N/A,,Clear,180,2012-10-27 12:53:00
8:53 AM,27.0,19.9,75,30.34,10.0,South,4.6,-,N/A,,Clear,180,2012-10-27 13:53:00
9:53 AM,33.1,21.9,64,30.31,10.0,South,13.8,-,N/A,,Clear,170,2012-10-27 14:53:00
10:53 AM,41.0,23.0,49,30.25,10.0,South,19.6,25.3,N/A,,Clear,180,2012-10-27 15:53:00
11:53 AM,45.0,23.0,42,30.22,10.0,South,18.4,27.6,N/A,,Clear,180,2012-10-27 16:53:00
12:53 PM,48.9,23.0,36,30.18,10.0,South,17.3,25.3,N/A,,Clear,190,2012-10-27 17:53:00
1:53 PM,51.1,21.0,31,30.15,10.0,SSW,17.3,24.2,N/A,,Clear,200,2012-10-27 18:53:00
2:53 PM,53.1,19.9,27,30.12,10.0,SSW,10.4,-,N/A,,Clear,200,2012-10-27 19:53:00
3:53 PM,57.0,21.0,25,30.09,10.0,South,10.4,17.3,N/A,,Clear,190,2012-10-27 20:53:00
4:53 PM,57.0,19.9,24,30.09,10.0,South,6.9,-,N/A,,Clear,180,2012-10-27 21:53:00
5:53 PM,55.9,19.9,25,30.09,10.0,SSE,8.1,-,N/A,,Clear,160,2012-10-27 22:53:00
6:53 PM,51.1,21.9,32,30.11,10.0,SSE,5.8,-,N/A,,Clear,150,2012-10-27 23:53:00
7:53 PM,46.0,21.0,37,30.16,10.0,SE,5.8,-,N/A,,Clear,130,2012-10-28 00:53:00
8:53 PM,43.0,21.0,42,30.17,10.0,SE,3.5,-,N/A,,Clear,130,2012-10-28 01:53:00
9:53 PM,39.9,21.9,49,30.19,10.0,South,5.8,-,N/A,,Clear,170,2012-10-28 02:53:00
11:53 PM,35.1,23.0,61,30.20,10.0,SSW,5.8,-,N/A,,Clear,200,2012-10-28 04:53:00